Location: Norton
(51.3000°N, 0.8167°E)
Time: 02:51:44
(UTC+00:00)

Cosmos 2333 Rocket - Pass Details

Date: 03 March 2021
Orbit: 837 x 864 km, 70.8° (Epoch: 13 April)

Event Time Altitude Azimuth Distance (km) Brightness Sun altitude
Rises 18:48:23 0° 164° (SSE) 3,390 5.1 -11.3°
Reaches altitude 10° 18:51:19 10° 150° (SSE) 2,465 4.3 -11.8°
Maximum altitude 18:55:32 22° 101° (ESE) 1,776 3.3 -12.4°
Drops below altitude 10° 18:59:48 10° 53° (NE) 2,492 4.2 -13.1°
Sets 19:02:46 0° 39° (NE) 3,438 5.1 -13.5°
